TimeCDT,TemperatureF,Dew PointF,Humidity,Sea Level PressureIn,VisibilityMPH,Wind Direction,Wind SpeedMPH,Gust SpeedMPH,PrecipitationIn,Events,Conditions,WindDirDegrees,DateUTC
12:56 AM,72.9,70.9,93,30.04,10.0,Calm,Calm,-,N/A,,Clear,0,2013-08-29 05:56:00
1:56 AM,70.9,70.0,97,30.04,6.0,SE,3.5,-,N/A,,Clear,140,2013-08-29 06:56:00
2:56 AM,70.9,70.9,100,30.04,9.0,Calm,Calm,-,N/A,,Clear,0,2013-08-29 07:56:00
3:56 AM,70.0,70.0,100,30.04,5.0,Calm,Calm,-,N/A,,Clear,0,2013-08-29 08:56:00
4:56 AM,70.0,70.0,100,30.04,8.0,Calm,Calm,-,N/A,,Scattered Clouds,0,2013-08-29 09:56:00
5:56 AM,70.9,70.9,100,30.05,9.0,Calm,Calm,-,N/A,,Mostly Cloudy,0,2013-08-29 10:56:00
6:56 AM,72.9,70.9,93,30.07,10.0,Calm,Calm,-,N/A,,Mostly Cloudy,0,2013-08-29 11:56:00
7:56 AM,77.9,70.9,79,30.08,10.0,West,3.5,-,N/A,,Scattered Clouds,260,2013-08-29 12:56:00
8:56 AM,82.9,70.9,67,30.07,10.0,NW,5.8,-,N/A,,Partly Cloudy,320,2013-08-29 13:56:00
9:56 AM,88.0,72.0,59,30.07,10.0,WNW,11.5,-,N/A,,Clear,290,2013-08-29 14:56:00
10:56 AM,88.9,72.0,57,30.07,10.0,North,9.2,-,N/A,,Partly Cloudy,350,2013-08-29 15:56:00
11:56 AM,91.9,70.9,50,30.06,10.0,NW,6.9,23.0,N/A,,Partly Cloudy,320,2013-08-29 16:56:00
12:56 PM,92.8,72.0,50,30.04,10.0,North,4.6,-,N/A,,Scattered Clouds,350,2013-08-29 17:56:00
1:56 PM,92.8,72.0,50,30.03,10.0,North,9.2,-,N/A,,Scattered Clouds,360,2013-08-29 18:56:00
2:56 PM,95.0,72.0,47,30.01,10.0,NNE,9.2,-,N/A,,Clear,20,2013-08-29 19:56:00
3:56 PM,93.9,70.9,47,29.99,10.0,North,8.1,-,N/A,,Partly Cloudy,360,2013-08-29 20:56:00
4:56 PM,93.9,72.0,49,29.98,10.0,North,10.4,18.4,N/A,,Partly Cloudy,350,2013-08-29 21:56:00
5:56 PM,92.8,70.9,49,29.98,10.0,NNW,10.4,-,N/A,,Clear,340,2013-08-29 22:56:00
6:56 PM,90.0,72.0,55,29.99,10.0,NW,6.9,-,N/A,,Clear,320,2013-08-29 23:56:00
7:56 PM,86.9,72.9,63,29.99,10.0,WNW,5.8,-,N/A,,Clear,300,2013-08-30 00:56:00
8:56 PM,84.9,73.9,69,30.01,10.0,Calm,Calm,-,N/A,,Mostly Cloudy,0,2013-08-30 01:56:00
9:56 PM,81.9,73.9,77,30.00,10.0,Calm,Calm,-,N/A,,Partly Cloudy,0,2013-08-30 02:56:00
10:56 PM,79.9,74.8,85,29.99,10.0,Calm,Calm,-,N/A,,Scattered Clouds,0,2013-08-30 03:56:00
11:56 PM,77.9,74.8,90,29.99,10.0,Calm,Calm,-,N/A,,Clear,0,2013-08-30 04:56:00